Powrót do katalogu

CAIYUN GUANGXE 01

AktywnyNaukaSSO
NORAD 69540·PAYLOAD·🇨🇳 China
Ta nazwa satelity nie została jeszcze potwierdzona przez oficjalne źródła.

Wystrzelony Jun 15, 2026 z Jiuquan Satellite Launch Center

Loading…

Następne Przeloty (najbliższe 24 godziny)

TLE

ŚwieżeSource: Space-Track

Epoka: Sep 14, 2026, 11:11 UTC

1 69540U 26134C   26257.46633989  .00003722  00000-0  23763-3 0  9998
2 69540  97.6917 327.9255 0017733 337.4093  22.6353 15.09175629 13772

Śledź CAIYUN GUANGXE 01 w czasie rzeczywistym z AllMySat

Download on the App Store